#timestamp,LO_Frequency,Hit,StdDev 
1673532015.3,286046998.7,P
1673532035.2,286046999.3,P
1673532055.9,286046998.4,Y
1673532075.7,286047002.8,P
1673532095.6,286047002.2,N
1673532115.4,286047002.2,N
1673532135.2,286047001.7,N
1673532155.1,286047001.9,N
1673532156.0,286047001.9,N
1673532175.8,286047002.5,N
1673532195.6,286047002.6,N
1673532215.5,286047002.5,N
1673532235.3,286047002.7,N
1673532255.1,286047001.7,N
1673532275.9,286047002.2,N
1673532295.7,286047002.3,N
1673532315.5,286047000.3,N
1673532335.4,286047001.1,N
1673532355.2,286047001.2,N
1673532375.0,286046998.8,N
1673532375.9,286046998.8,N
1673532395.8,286047000.3,N
1673532415.6,286047001.0,N
1673532435.4,286047000.0,N
1673532455.3,286047000.5,N
1673532475.1,286047000.1,N
1673532495.8,286047000.7,N
1673532515.7,286047000.7,N
1673532535.5,286047000.8,N
1673532555.3,286047001.0,N
1673532575.2,286047000.2,N
1673532595.0,286047000.2,N
1673532595.9,286047000.2,N
1673532615.7,286046999.8,N
1673532635.6,286047000.0,N
1673532655.4,286047000.4,N
1673532675.2,286047002.7,N
1673532695.1,286047001.9,N
1673532696.0,286047001.9,N
1673532715.8,286047001.7,N
1673532735.7,286047001.9,N
1673532755.5,286047001.4,N
1673532775.3,286047001.4,N
1673532795.2,286047002.3,N
1673532815.9,286047002.8,N
1673532835.7,286047002.4,N
1673532855.6,286047000.1,N
1673532875.4,286047001.8,N
1673532895.2,286047001.3,N
1673532915.1,286047002.6,N
1673532916.0,286047002.6,N
1673532935.8,286047000.2,N
1673532955.6,286046998.1,N
1673532975.5,286046999.4,N
1673532995.3,286046998.8,N
1673533015.1,286046996.5,N
1673533035.9,286046998.5,N
1673533055.7,286046998.6,N
1673533075.5,286046998.1,N
1673533095.4,286046998.2,N
1673533115.2,286047001.1,N
1673533135.0,286046998.2,N
1673533135.9,286046998.2,N
1673533155.8,286047000.7,N
1673533175.6,286046998.4,N
1673533195.4,286046999.3,N
1673533215.3,286047000.8,N
1673533235.1,286046998.1,N
1673533255.8,286047000.7,N
1673533275.7,286046998.1,N
1673533295.5,286046998.3,N
1673533315.3,286046999.6,N
1673533335.2,286046999.2,N
1673533355.0,286046997.3,N
1673533355.9,286046997.3,N
1673533375.7,286046997.9,N
1673533395.6,286046997.7,N
1673533415.4,286046996.9,N
1673533435.2,286046997.4,N
1673533455.1,286046997.5,N
1673533456.0,286046997.5,N
1673533475.8,286046997.0,N
1673533495.6,286046996.7,N
1673533515.5,286046997.6,N
1673533535.3,286046995.6,Y
1673533555.1,286046996.9,P
1673533575.9,286046999.2,N
1673533595.7,286046996.7,P
1673533615.6,286046997.7,N
1673533635.4,286046995.0,Y
1673533655.2,286046999.6,P
1673533675.1,286046996.6,P
1673533676.0,286046996.6,N
1673533695.8,286046997.4,N
1673533715.6,286046997.7,N
1673533735.5,286046997.2,N
1673533755.3,286046996.7,Y
1673533775.1,286046998.1,P
1673533795.9,286047001.0,P
1673533815.7,286046999.9,N
1673533835.5,286047002.8,N
1673533855.4,286047000.6,N
1673533875.2,286047000.5,N
1673533895.0,286046998.2,N
1673533895.9,286046998.2,N
1673533915.8,286046998.3,N
1673533935.6,286046998.3,N
1673533955.4,286046998.5,N
1673533975.3,286046998.9,N
1673533995.1,286046999.4,N
1673533996.0,286046999.4,N
1673534015.8,286047001.1,N
1673534035.7,286046998.7,N
1673534055.5,286047000.7,N
1673534075.3,286046998.5,N
1673534095.2,286046999.6,N
1673534115.9,286046996.7,N
1673534135.7,286046997.9,N
1673534155.6,286046997.3,N
1673534175.4,286046996.9,N
1673534195.2,286046999.6,N
1673534215.1,286046999.3,N
1673534216.0,286046999.3,N
1673534235.8,286046996.5,N
1673534255.6,286046997.2,N
1673534275.5,286046997.6,N
1673534295.3,286046997.5,N
1673534315.1,286046995.4,Y
1673534335.9,286046997.7,P
1673534355.7,286046999.6,N
1673534375.5,286046999.6,N
1673534395.4,286046996.9,Y
1673534415.2,286046998.9,P
1673534435.0,286046997.0,P
1673534435.9,286046997.0,P
1673534455.8,286046996.8,Y
1673534475.6,286047001.2,P
1673534495.4,286046998.6,N
1673534515.3,286047000.0,N
1673534535.1,286047001.2,N
1673534536.0,286047001.2,N
1673534555.8,286047000.8,N
1673534575.7,286047001.2,N
1673534595.5,286046998.2,N
1673534615.3,286047001.0,N
1673534635.2,286047001.2,N
1673534655.9,286046998.1,N
1673534675.7,286046998.6,N
1673534695.6,286046998.8,N
1673534715.4,286046998.1,N
1673534735.2,286046999.1,N
1673534755.1,286046999.6,N
1673534756.0,286046999.6,N
1673534775.8,286046998.8,N
1673534795.6,286046998.9,N
1673534815.5,286046998.7,N
1673534835.3,286046998.3,N
1673534855.1,286046999.4,N
1673534875.9,286046996.6,N
1673534895.7,286046996.7,N
1673534915.5,286046999.2,N
1673534935.4,286046999.5,N
1673534955.2,286046998.3,N
1673534975.0,286046999.2,N
1673534975.9,286046999.2,N
1673534995.8,286046998.9,N
1673535015.6,286046998.8,N
1673535035.4,286046999.4,N
1673535055.3,286046997.0,N
1673535075.1,286046999.2,N
1673535076.0,286046999.2,N
1673535095.8,286046998.8,N
1673535115.7,286046998.2,N
1673535135.5,286046997.0,Y
1673535155.3,286046998.2,P
1673535175.2,286046998.7,P
1673535195.9,286046998.6,P
1673535215.7,286047000.2,N
1673535235.6,286047002.4,Y
1673535255.4,286047004.4,P
1673535275.2,286047004.4,N
1673535295.1,286047001.4,N
1673535296.0,286047001.4,N
1673535315.8,286047003.9,N
1673535335.6,286047002.6,N
1673535355.5,286047011.9,Y
1673535375.3,286046999.5,P
1673535395.1,286046996.8,N
1673535415.9,286046999.1,N
1673535435.7,286046996.6,N
1673535455.5,286046997.6,N
1673535475.4,286046997.9,N
1673535495.2,286046994.9,N
1673535515.0,286046995.1,N
1673535515.9,286046995.1,N
1673535535.8,286046995.7,N
1673535555.6,286046996.1,N
1673535575.4,286046993.3,Y
1673535595.3,286046999.3,P
